Location: Derby
(52.9213°N, 1.4761°W)
Time: 02:59:48
(UTC+01:00)

Vanguard 2 Rocket - Pass Details

Date: 18 May 2025
Orbit: 554 x 3293 km, 32.9° (Epoch: 12 June)

Event Time Altitude Azimuth Distance (km) Brightness Sun altitude
Rises 03:58:35 0° 253° (WSW) 5,866 10.5 -8.1°
Reaches altitude 10° 04:04:27 10° 239° (WSW) 4,274 9.7 -7.5°
Maximum altitude 04:10:58 18° 202° (SSW) 2,961 9.0 -6.8°
Drops below altitude 10° 04:15:47 10° 162° (SSE) 2,998 9.3 -6.3°
Sets 04:18:56 0° 142° (SE) 3,596 9.9 -6.0°
